Overview Statistics Trail Chart Weather Telemetry Raw packets
 

This is the latest recevied weather packets stored in our database for station/object EA2FBA-10. If no packets are shown the sender has not sent any weather packets the latest 10 day(s).

<< 39 40 41 42 43 44 45 >>
Time Temp. Humidity Pressure Rain* Wind** Luminosity Snow
1788095424 25° C 53% 955.1 hPa - - - -
1788094524 24.44° C 54% 955 hPa - - - -
1788093633 25.56° C 44% 955 hPa - - - -
1788093624 25.56° C 44% 955 hPa - - - -
1788092724 25° C 44% 954 hPa - - - -
1788091833 25.56° C 43% 954.7 hPa - - - -
1788091824 25.56° C 43% 954.7 hPa - - - -
1788090933 25° C 45% 954.8 hPa - - - -
1788090924 25° C 45% 954.8 hPa - - - -
1788090024 24.44° C 45% 954.8 hPa - - - -
1788089123 24.44° C 45% 954.8 hPa - - - -
1788088223 24.44° C 43% 953.8 hPa - - - -
1788087323 23.89° C 48% 955.1 hPa - - - -
1788086433 23.89° C 49% 955.2 hPa - - - -
1788086423 23.89° C 49% 955.2 hPa - - - -
1788085523 23.33° C 50% 955.3 hPa - - - -
1788084623 22.78° C 53% 955.5 hPa - - - -
1788083723 22.78° C 54% 955.6 hPa - - - -
1788082833 21.67° C 55% 955.7 hPa - - - -
1788082823 21.67° C 55% 955.7 hPa - - - -
1788081923 21.67° C 58% 955.8 hPa - - - -
1788081034 20.56° C 60% 955.9 hPa - - - -
1788081023 20.56° C 60% 955.9 hPa - - - -
1788080133 21.11° C 61% 956 hPa - - - -
1788080122 21.11° C 61% 956 hPa - - - -

* Rain since midnight (hover to see other rain measurements)
** Current wind speed in m/s (hover to see current wind gust speed)